Погода в Рославле

Погода в Рославле : погода сейчас, прогноз погоды и архив. Всё, что Вы хотите узнать о погоде в Рославле!

Хотите узнать прогноз погоды в Рославле? Тогда Вам сюда: Погода в Рославле

Поиск расширенной информации на нашем сайте:

Другие новости

Новости СМИ2

Главная страница сайта

Новости сайта

03.07.2017

Напоминаем, что на нашем специализированном сайте Метеоцентр.Азия вы можете получить высокодетализированные автоматические прогнозы погоды по пунктам России, СНГ и мира в авиационном формате (включающие направление и скорость ветра, видимость, явления погоды, количество и форму облачности, нижнюю и верхнюю границу облачности).

Рекомендуем: аренда дома одесса

Погода в Рославле - сегодня

Время (UTC), дата Ветер
(°,м/с) 
Видим.   Явления Облачность Т
(°С)
Тd
(°С)
f(%) Тe
(°С)
Pmin
(гПа)
dP
(гПа)
Po
(мм)
O2
(г/м3)
Тmin Tmax R s Состояние
почвы
15 12.10.18 220 (ЮЗ) 20000 м    ясно 
+13.4 +4.3 54 +15  1034.5  -1.4  755  290           
21 12.10.18 230 (ЮЗ) 50000 м    ясно 
+5.8 +3.8 87 +6  1035.1  0.1  755  297           
00 13.10.18 240 (ЮЗ) 50000 м    ясно 
+4.1 +3.2 94 +3  1034.9  -0.4  755  299           
09 13.10.18 300 (СЗ) 20000 м    5/0 верхняя 
[Cc]
+15.2 +5 51 +15  1033.3  0.2  755  287           
12 13.10.18 250 (З) 20000 м    4/0 верхняя 
[Cc]
+17.4 +4.9 44 +18  1031.9  -1.1  754  285           
15 13.10.18 230 (ЮЗ) 20000 м    4/0 верхняя 
[Ci fib]
+12.6 +5.1 60 +12  1031.2  -1.2  753  289           
21 13.10.18 260 (З) 50000 м    4/0 верхняя 
[Ci fib]
+7 +3.9 81 +7  1031.7  0.1  753  295           
00 14.10.18 240 (ЮЗ) 50000 м    4/0 верхняя 
[Ci fib]
+5.1 +3.9 92 +5  1031.8  0.1  753  297           
03 14.10.18 240 (ЮЗ) 50000 м    4/0 верхняя 
[Ci fib]
+4.1 +3.4 95 +4  1031.6  -0.3  753  298  +4.1         
06 14.10.18 260 (З) 9000 м  дымка  10/0 верхняя 
[Ci fib]
+6.1 +5.5 96 +6  1031.5  0.1  753  296  +3.4         
09 14.10.18 280 (З) 20000 м    ясно 
+15.6 +9.8 68 +17  1031.1  0.5  753  285           
12 14.10.18 320 (СЗ) 20000 м    8/0 верхняя 
[Ci fib]
+18.7 +8.1 50 +20  1029.8  -1  752  282           
15 14.10.18 290 (З) 17000 м    8/0 верхняя 
[Ci fib]
+14.5 +8.2 66 +16  1029.5  -0.6  752  286           
21 14.10.18 260 (З) 12000 м    5/0 верхняя 
[Ci fib]
+8.3 +7.4 94 +8  1030.4  0.3  752  293           
03 15.10.18 тихо ()   0700 м  туман  3/0 верхняя 
[Ci fib]
+2.4 +2 97 +2  1031.2  0.1  752  300  +2.4         
09 15.10.18 260 (З) 20000 м  {туман}  3/0 верхняя 
[Ci]
+14.7 +10.1 74 +17  1030.7  0.3  753  286           
15 15.10.18 250 (З) 18000 м    3/0 верхняя 
[Cs]
+12.9 +7.7 71 +14  1029.5  -0.7  752  288           
21 15.10.18 260 (З) 12000 м    5/0 верхняя 
[Ci fib]
+8.3 +7.4 94 +8  1030.4  0.3  752  293           
09 16.10.18 240 (ЮЗ) 18000 м    3/0 верхняя 
[Cs]
+15.5 +7.8 60 +16  1028.5  -0.2  751  285           
12 16.10.18 240 (ЮЗ) 20000 м    1/0 верхняя 
[Ci fib]
+18.9 +6 43 +20  1027.3  -0.9  751  282           
15 16.10.18 180 (Ю) 20000 м    ясно 
+14.8 +7.1 60 +15  1027  -0.7  750  286           
21 16.10.18 230 (ЮЗ) 50000 м    ясно 
+10.2 +7.1 81 +10  1026.9  -0.2  750  290           
00 17.10.18 220 (ЮЗ) 50000 м    ясно 
+8.3 +7.1 92 +9  1027.3  -0.2  750  292           
03 17.10.18 230 (ЮЗ) 45000 м  дымка  ясно 
+7.2 +6.5 95 +8  1027.3  0.1  750  293  +6         
09 17.10.18 220 (ЮЗ) 20000 м    ясно 
+18.9 +9.1 53 +20  1026.8  0.1  750  281           
Время (UTC), дата Ветер
(°,м/с) 
Видим.   Явления Облачность Т
(°С)
Тd
(°С)
f(%) Тe
(°С)
Pmin
(гПа)
dP
(гПа)
Po
(мм)
O2
(г/м3)
Тmin Tmax R s Состояние
почвы

Для получения пояснительной информации подведите курсор к названию столбца.

ПОГОДА в Рославле - архив

Всё, что Вы хотите узнать о погоде в Рославле - удобно и подробно!

Выберите нужную дату (начиная с 1 января 2015* года) и нажмите кнопку "Найти".
Будут отображены архивные сводки погоды по пункту Рославль, начиная с указанной даты.


Отображать данные в формате CSV (для использования в таблицах Excel)


Внимание! Наш архив погоды предназначен исключительно для личного некоммерческого использования в познавательных целях. Если Вам необходимы официальные справки о состоянии погоды (для производственных, юридических, коммерческих и т.п. целей), обращайтесь в органы Росгидромета.

*Примечание: данная дата относится к архиву по метеостанциям СССР (Россия, СНГ, Балтия).
Архив по метеостанциям Зарубежной Европы и Азии (кроме Китая) хранится 10 дней, по другим регионам земного шара (Китай, Африка, Америка, Австралия, Океания) - 1 день.

Рославль - район местоположения метеостанции


Название, широта, долгота, высота метеостанции:
Рославль 53.9°ш. 32.8°д. 224 м над ур. моря [Российская Федерация]

Дополнительная информация

В oтличие oт бoльшинства пoгoдных сайтoв мы публикуем пoдрoбную метеoинфoрмацию в детальнoм прoфессиoнальнoм фoрмате.

Характеристики температуры и влажнoсти вoздуха измеряются на высoте 2 м в тени вдали oт зданий и деревьев.
Скoрoсть ветра измеряется на высoте 10 м (на урoвне рoста челoвека скoрoсть ветра ниже в 1.5-2 раза). Если метеoстанция нахoдится в гoрoде или в лесу, тo скoрoсть ветра занижена на 2-4 м/с пo сравнению с oткрытым местoм. Скoрoсть ветра над акватoриями крупных рек и oзёр, а также на вершинах хoлмoв на 2-5 м/с выше, чем в oбычных услoвиях.
Атмoсфернoе давление в разных тoчках местнoсти мoжет значительнo oтличаться oт давления на метеoстанции, в зависимoсти oт услoвий рельефа (при пoдъёме на 10 м давление пoнижается примернo на 1 мм рт.ст.).